Simultaneous Nadir Overpasses (SNOs) Predictions

Prediction of SNOs between GOES-16 and TERRA Satellite Orbit:

Table of predicted SNOs for the next 14.0 days since TLE Epoch: 10/28/2023
Index Date Time (GOES-16) GOES-16 Lat,Lon TERRA Lat,Lon Distance(km) Time Diff (sec)
1 10/28/2023 03:13:02 0.06, -75.19 -0.53, -77.92 310.30 80
2 10/30/2023 02:53:45 0.06, -75.20 0.30, -73.91 146.43 80
3 10/30/2023 15:13:51 -0.05, -75.23 0.73, -78.80 406.72 80
4 11/01/2023 14:59:55 -0.05, -75.24 -0.13, -74.79 50.74 80
5 11/04/2023 03:03:32 0.04, -75.24 -0.06, -75.70 52.27 80
6 11/06/2023 02:44:14 0.03, -75.27 0.79, -71.69 407.04 80
7 11/06/2023 15:04:21 -0.03, -75.29 0.24, -76.57 145.55 80
8 11/08/2023 14:50:23 -0.03, -75.33 -0.63, -72.56 314.90 80
9 11/09/2023 03:10:38 0.03, -75.32 -0.40, -77.48 245.46 80
